• Retour au menu

    Bienvenue à l'aéro-club Gascon

    Piloter un avion dans le Gers
    Piloter un avion dans le Gers

    L'aéro-club Gascon est basé sur l'aéroport Auch-Gers en plein cœur du Gers et de la Gascogne.
    Affilié à la FFA, il accueille des passionnés d'aéronautique qui peuvent y apprendre et pratiquer l'art du pilotage.


    Apprendre à piloter
    Apprendre à piloter

    Que l'on veuille piloter un avion pour le plaisir ou pour en faire son métier, il faut commencer par les bases du pilotage.
    Pilotes amateurs ou professionnels, tous ont commencé par une formation de pilote privé, le plus fréquemment au sein d'un aéro-club.


    Le Gers vu du ciel
    Le Gers vu du ciel

    Réalisez votre rêve et faites le plein de sensations en effectuant un baptème de l'air en Gascogne.
    D'une durée d'une demi-heure et pour un coût de 75 € le vol, vous partirez à la découverte du ciel aux côtés d'un pilote professionnel !

    Les News

    13
    jun

    Journée commémorative
    BA 118 Mont de Marsan

    14
    jun

    Jour le plus long

    6-7
    sep

    Foire du Sport & de la Culture


    L'aéro-club Gascon sera présent lors du week-end de la Foire du Sport & de la Culture organisé par l'OMS d'Auch.
    N'hésitez pas à venir nous rencontrer afin d'obtenir tous les renseignements que vous souhaitez sur nos formations.

    27
    sep

    Atterrissage de précision


    L'aéro-club Gascon organise pour ses membres une journée sur le thème de l'atterrissage de précision. Le réglement est celui de la FAI.
    Les élèves-pilotes y participent en instruction ou en solo si autorisé.

  • Retour au menu

    PPL(A)

    PPL(A)

    La licence de pilote privé avion PPL(A) est une licence européenne qui permet à son titulaire d'exercer les fonctions de commandant de bord de tout avion effectuant des vols non rémunérés, et pour lequel il possède les qualifications requises.

    en savoir plus

    LAPL

    LAPL

    La licence LAPL est une licence européenne non reconnue par l'OACI qui permet à son titulaire d'exercer les fonctions de commandant de bord sur des avions monomoteur à pistons d'une masse maximale de 2 tonnes, transportant 3 passagers maximum.

    en savoir plus

    Vol de nuit

    Vol de nuit

    L'aptitude au vol de nuit est une qualification qui permet à son titulaire d'exercer tous les privilèges du PPL(A) de nuit, mais également d'accéder à une formation de pilote professionnel et de vols aux instruments (IFR).

    en savoir plus
  • Retour

    PPL(A)

    La licence de pilote privé avion PPL(A) est une licence européenne qui permet à son titulaire d'exercer les fonctions de commandant de bord de tout avion effectuant des vols non rémunérés, et pour lequel il possède les qualifications requises.

    La formation se compose d'une partie théorique et d'une partie pratique, chacune étant sanctionnée par un examen.

    L'apprentissage théorique et pratique se fait en parallèle sur une période de 3 à 18 mois selon vos disponibilités, pour un coût moyen de 8000 €.

    Pour accéder à la formation il faut :
    - être âgé de 16 ans lors du premier vol seul à bord (la formation peut débuter avant cet âge) ;
    - avoir satisfait à une visite médicale effectuée par un médecin aéronautique agréé.

    La préparation à l'examen théorique se fait au sein de l'aéroclub Gascon, soit en salle (100 heures de cours), soit en e-Learning en partenariat avec l'Institut Mermoz.

    L'examen théorique comporte 2 modules regroupant 9 matières, et se présente sous forme de QCM (120 questions) auxquelles il faut un taux de réussite de 75 %.

    Les séances de formation pratique se composent d'un briefing avant le vol, du vol puis d'un débriefing.

    Au cours de cette formation, vous apprendrez les bases du pilotage ainsi que les différentes techniques de navigation et vous bénéficierez d'une initiation au vol sans visibilité.

    Pour se présenter au test pratique PPL(A), les candidats doivent avoir 17 ans révolus et avoir effectué au moins 45 heures d'instruction sur avion dont 25 heures de vol en double commande avec instructeur et 10 heures de vol en solo supervisé dont 5 heures de vol sur la campagne avec un vol de navigation d'un minimum de 150 Nm avec 2 atterrissages intermédiaires complets.

    A l'issue du PPL(A), le pilote peut obtenir des qualifications supplémentaires permettant de voler la nuit, de voler aux instruments ou d'utiliser des avions plus complexes.

  • Retour

    LAPL

    La licence LAPL est une licence européenne non reconnue par l'OACI qui permet à son titulaire d'exercer les fonctions de commandant de bord sur des avions monomoteur à pistons d'une masse maximale de 2 tonnes, transportant 3 passagers maximum.

    Néanmoins, les titulaires d'une licence LAPL ne peuvent transporter des passagers qu'une fois qu'ils ont effectué, après la délivrance de la licence, 10 heures de vol en qualité de commandant de bord.

    La formation se compose d'une partie théorique et d'une partie pratique, chacune étant sanctionnée par un examen.

    L'apprentissage théorique et pratique se fait en parallèle sur une période de 3 à 18 mois selon vos disponibilités, pour un coût moyen de 6500 €.

    Pour accéder à la formation il faut :
    - être âgé de 16 ans lors du premier vol seul à bord (la formation peut débuter avant cet âge) ;
    - avoir satisfait à une visite médicale effectuée par un médecin aéronautique agréé.

    La préparation à l'examen théorique se fait au sein de l'aéroclub Gascon, soit en salle (100 heures de cours), soit en e-Learning en partenariat avec l'Institut Mermoz.

    L'examen théorique, identique à celui du PPL(A), comporte 2 modules regroupant 9 matières, et se présente sous forme de QCM (120 questions) auxquelles il faut un taux de réussite de 75 %.

    Les séances de formation pratique se composent d'un briefing avant le vol, du vol puis d'un débriefing.

    Au cours de cette formation, vous apprendrez les bases du pilotage ainsi que les différentes techniques de navigation.

    Pour se présenter au test pratique LAPL, les candidats doivent avoir 17 ans révolus et avoir effectué au moins 30 heures d'instruction sur avion dont 15 heures de vol en double commande avec instructeur et 6 heures de vol en solo supervisé dont 3 heures de vol sur la campagne avec un vol de navigation d'un minimum de 80 Nm avec 1 atterrissage complet sur un aérodrome autre que celui de départ.

  • Retour

    Vol de nuit

    L'aptitude au vol de nuit est une qualification qui permet à son titulaire d'exercer tous les privilèges du PPL(A) de nuit, mais également d'accéder à une formation de pilote professionnel et de vols aux instruments (IFR).

    Cette formation, qui fait appel à d'autres références que celles utilisées habituellement par le pilote VFR, est également utile lorsque les conditions de vol sont dégradées car le pilotage devra alors être basé sur les instruments et la radionavigation pour déterminer l'attitude et la position de l'avion.

    Pour accéder à la formation il faut :
    - être titulaire d'un certificat médical de classe LAPL, 1 ou 2 valide ;
    - être titulaire d'une licence PPL(A) et d'une qualification SEP(T) en état de validité,
    ou
    - être titulaire d'une licence LAPL répondant aux conditions d'expérience récente (FCL 140 A).
    Dans ce cas, le pilote devra avoir effectué la formation de base au vol aux instruments nécessaire à la délivrance du PPL(A).

    La formation se compose d'une partie théorique et d'une partie pratique, validées par l'instructeur en charge de la formation.

    Pour se voir délivrer la qualification vol de nuit, le pilote doit effectuer au minimum 5 heures de vol de nuit dont au moins 3 heures d'instruction en double commande, incluant au moins 1 heure de navigation en campagne avec au minimum 1 vol d'au-moins 50 km, ainsi que 5 décollages et 5 atterrissages complets en solo.

  • Retour au menu

    Voler à Auch

    Voler à Auch
    L'aéroport Auch - Gers

    Situé au Nord de la ville de Auch, l'aéroport Auch-Gers dispose d'une piste revêtue de 1900m, équipée pour le VFR de nuit.
    Un service AFIS rendu aux vols VFR et IFR, un STAP et un PCL permettent d'utiliser toutes les fonctionnalités de la piste.


    Robin DR 400/140B
    Robin DR 400/140B

    Equipé VFR de nuit et disposant d'une autonomie de 4 h 30, le DR 400 est adapté aux vols d'instruction ainsi qu'aux voyages.
    Au 1er mai 2014, le tarif de l'heure de vol est de 130 € pour les pilotes brevetés et de 145 € pour les élèves-pilotes.


    METAR et TAF
    Messages METAR et TAF

    Sélection de messages METAR et TAF du grand Sud-Ouest


    Cliquer pour afficher


    Accès membres








  • Retour

    Messages METAR et TAF

    Agen La Garenne - LFBA
    METAR LFBA 221330Z AUTO 28009KT 9999 OVC048/// ///TCU 17/13 Q1018=
    TAF indisponible

    Bergerac Roumanière - LFBE
    METAR LFBE 221330Z AUTO 25005KT 190V310 9999 NSC 22/11 Q1017=
    TAF indisponible

    Biarritz Bayonne Anglet - LFBZ
    METAR LFBZ 221330Z 11003KT 9999 BKN040 FEW043TCU 16/14 Q1019 NOSIG=
    TAF LFBZ 221100Z 2212/2312 12005KT 9999 BKN035 TEMPO 2212/2218 34010KT PROB30 TEMPO 2212/2215 -SHRA SCT030TCU TEMPO 2215/2224 CAVOK TEMPO 2300/2306 BKN015=

    Bordeaux Mérignac - LFBD
    METAR LFBD 221330Z AUTO 33006KT 270V030 9999 NSC 22/09 Q1018=
    TAF TAF LFBD 221100Z 2212/2318 33008KT CAVOK TEMPO 2309/2318 BKN030=

    Mont de Marsan - LFBM
    METAR LFBM 221330Z AUTO VRB02KT 9999 NSC 19/10 Q1019=
    TAF LFBM 221100Z 2212/2312 26005KT CAVOK TEMPO 2218/2310 1500 BR BKN010 PROB40 TEMPO 2218/2309 0200 FG BKN003=

    Pau Pyrénées - LFBP
    METAR LFBP 221330Z 00000KT 9999 -RA BKN063 16/13 Q1019 NOSIG=
    TAF LFBP 221100Z 2212/2312 VRB03KT 9999 BKN030 BKN110 PROB30 TEMPO 2213/2216 18005KT 7000 SHRA FEW025TCU BKN030 BECMG 2310/2312 26006KT SCT030=

    Tarbes Lourdes Pyrénées - LFBT
    METAR LFBT 221330Z AUTO 28005KT 9999 -RA BKN012 BKN020 OVC064 16/14 Q1019=
    TAF LFBT 221100Z 2212/2312 VRB03KT 9999 BKN025 PROB30 TEMPO 2212/2218 -SHRA PROB30 TEMPO 2215/2218 VRB15G25KT 4000 TSRA SCT020CB TEMPO 2218/2224 5000 -RA BKN005=

    Toulouse Blagnac - LFBO
    METAR LFBO 221330Z AUTO 28007KT 9999 -RA FEW026/// BKN042/// BKN062/// ///CB 18/15 Q1018=
    TAF AMD LFBO 221234Z 2212/2318 32006KT 9999 FEW035 SCT045 TEMPO 2212/2214 4000 TSRA SCT030CB BKN040 PROB40 TEMPO 2214/2222 4000 SHRA BKN040 FEW060CB=

  • Retour au menu

    Pour venir

    Place René Maret
    Aérodrome d'Auch-Gers
    32000 AUCH
    Téléphone : 05 62 63 37 23

    Nous contacter